Tracking 25612 objects as of 19-May-2022
HD Live streaming from Space Station
objects crossing your sky now

FREGAT DEB

Track FREGAT DEB now!
10-day predictions


NORAD ID: 45644
Int'l Code: 2011-037AL
Perigee: 614.2 km
Apogee: 2,596.6 km
Inclination: 51.4 °
Period: 118.2 minutes
Semi major axis: 7976 km
RCS: Unknown
Launch date: July 18, 2011
Source: Commonwealth of Independent States (former USSR) (CIS)
Launch site: TYURATAM MISSILE AND SPACE COMPLEX (TTMTR)

Note: This is SATELLITE DEBRIS
aabbcc
Your satellite tracking list
Your tracking list is empty




NASA's NSSDC Master Catalog

Two Line Element Set (TLE):
1 45644U 11037AL  22138.45625987  .00009128  00000-0  65357-2 0  9995
2 45644  51.4303 150.9086 1242673 148.4128 219.7792 12.18698579 86415
Source of the keplerian elements: AFSPC